User: anonymous   Login
Location: Unspecified
(0.0000°N, 0.0000°E)
Time: 02:52:48
(UTC+00:00)
Language:

SATHYABAMASAT - Orbit

View from above orbital plane
View from above orbital plane
View from above satellite
View from above satellite

Ground track
Ground track

The orbit data is extracted from the following two-line orbital elements,

1 41600U 16040B   18113.42569755  .00002146  00000-0  96327-4 0  9993
2 41600  97.4209 177.4245 0015994  74.0970 286.2027 15.22155250101859
Epoch (UTC): 23 April 2018 10:13:00
Eccentricity: 0.0015994
inclination: 97.4209°
perigee height: 488 km
apogee height: 510 km
right ascension of ascending node: 177.4245°
argument of perigee: 74.0970°
revolutions per day: 15.22155250
mean anomaly at epoch: 286.2027°
orbit number at epoch: 10185

The dashed part of the orbit path shows where the satellite is in the earth's shadow,  

DLR